Weather Roundup
Issued by NWS Chicago, IL

Home | Current Version | Previous Version | Text Only | Print | Product List | Glossary Off
Versions: 1 2 3 4 5 6 7 8 9 10 11 12 13 14 15 16 17 18 19 20 21 22 23 24 25 26 27 28 29 30 31 32 33 34 35 36 37 38 39 40 41 42 43 44 45 46 47 48 49 50

000
NZUS59 KLOT 290408
HRRLOT

CHICAGO AREA WEATHER ROUNDUP
NATIONAL WEATHER SERVICE CHICAGO/ROMEOVILLE IL
1100 PM CDT TUE JUL 28 2015

NOTE: "FAIR" INDICATES FEW OR NO CLOUDS BELOW 12,000 FEET WITH NO
SIGNIFICANT WEATHER AND/OR OBSTRUCTIONS TO VISIBILITY.

* THESE STATIONS ARE NOT UNDER NWS QUALITY CONTROL. THEY ALSO MAY NOT
  REPORT WEATHER SUCH AS PRECIPITATION OR FOG.

ILZ005-006-012>014-019>023-290500-
NORTHEAST ILLINOIS

CITY           SKY/WX    TMP DP  RH WIND       PRES   REMARKS
OHARE          MOCLDY    79  74  84 S5        29.93F HX  82
MIDWAY         MOCLDY    84  73  69 S5        29.93F HX  90
AURORA         PTCLDY    77  71  82 CALM      29.94S
LANSING*       CLEAR     76  69  80 S5        29.95F
JOLIET*        CLEAR     76  74  95 CALM      29.94S
WAUKEGAN       PTCLDY    72  70  93 CALM      29.93S
DUPAGE AIRPORT PTCLDY    78  73  84 S5        29.93F HX  81
WHEELING       CLEAR     79  72  79 CALM      29.94S HX  82
KANKAKEE*      PTCLDY    77  76  95 SE3       29.96S
MORRIS*        PTCLDY    76  74  92 SE3       29.92F
LEWIS AIRPORT* CLEAR     76  72  86 SE6       29.94S
NORTHERLY IS     N/A     82  70  66 S3          N/A  HX  86
$$

WIZ051-052-058>065-066-070>072-290500-
SOUTHEAST WISCONSIN

CITY           SKY/WX    TMP DP  RH WIND       PRES   REMARKS
MILWAUKEE      MOCLDY    75  67  76 S5        29.93S
KENOSHA*       PTCLDY    73  69  87 CALM      29.94S
RACINE*        PTCLDY    77  69  76 SE5       29.95S
BURLINGTON     PTCLDY    69  68  96 CALM      29.95R FOG
WAUKESHA       PTCLDY    73  68  83 CALM      29.95R
WEST BEND      PTCLDY    72  66  83 CALM      29.94R
$$

INZ001>003-010>013-019-020-290500-
NORTHWEST INDIANA

CITY           SKY/WX    TMP DP  RH WIND       PRES   REMARKS
GARY*          CLEAR     78  74  87 CALM      29.95S HX  80
MICHIGAN CITY* NOT AVBL
RENSSELAER*    NOT AVBL
VALPARAISO     CLEAR     79  72  79 S6        29.97F HX  82
$$

LMZ740>746-290500-
SOUTHERN LAKE MICHIGAN

STATION/POSITION TIME  SKY/WX   TEMP WIND        PRES    VSBY
                                AIR  DIR/SP/G
                 (UTC)          (F)  (DEG/KT/KT) (MB)    (MI)
HARRISON CRIB    0300            84  230/  5/  6   N/A
BURNHAM HARBOR   0400            81  170/  3/  5   N/A
CALUMET HARBOR   0300            83  200/  3/  4   N/A
BURNS HARBOR     0300            83  180/  3/  5 1014.9R
MICHIGAN CITY    0300            82  130/  6/  7   N/A
$$

ABBREVIATIONS USED IN REMARKS
   TC - TEMPERATURE IN CELSIUS
  WCI - WIND CHILL INDEX
   HX - HEAT INDEX
  VSB - VISIBILITY
$$



USA.gov is the U.S. government's official web portal to all federal, state and local government web resources and services.